Wilmington, NC

3:05 AM EDT on July 28, 2017 (GMT -0400)
Wilmington International

Weather History for KILM - March, 2014

Change the Weather History Date:

Sunday, March 2, 2014

  Actual Average Record
Temperature  
Mean Temperature 57 °F 52 °F  
Max Temperature 72 °F 63 °F 85 °F (1976)
Min Temperature 42 °F 40 °F 16 °F (1980)
Degree Days  
Heating Degree Days 8 14  
Month to date heating degree days 27 28  
Since 1 July heating degree days 1961 1957  
Cooling Degree Days 0 0  
Month to date cooling degree days 0 0  
Year to date cooling degree days 5 5  
Growing Degree Days 7 (Base 50)    
Moisture  
Dew Point 40 °F    
Average Humidity 56    
Maximum Humidity 83    
Minimum Humidity 29    
Precipitation  
Precipitation 0.00 in 0.13 in 4.38 in (1994)
Month to date precipitation T 0.27  
Year to date precipitation 5.46 7.65  
Snow  
Snow 0.00 in 0.00 in 5.20 in (1980)
Month to date snowfall 0.0 0.0  
Since 1 July snowfall 1.0 1.5  
Snow Depth 0.00 in    
Sea Level Pressure  
Sea Level Pressure 30.14 in    
Wind  
Wind Speed 6 mph (SSW)    
Max Wind Speed 14 mph    
Max Gust Speed 18 mph    
Visibility 10 miles    
Events      
T = Trace of Precipitation, MM = Missing Value Source: NWS Daily Summary

Daily Weather History Graph

Daily Weather History Graph

Search for Another Location

Airport or City:

Trip Planner

Search our weather history database for the weather conditions in past years. The results will help you decide how hot, cold, wet, or windy it might be!

Date:

Astronomy

Mar. 02, 2014 Rise Set
Actual Time 6:39 AM EST 6:08 PM EST
Civil Twilight 6:14 AM EST 6:33 PM EST
Nautical Twilight 5:45 AM EST 7:02 PM EST
Astronomical Twilight 5:16 AM EST 7:32 PM EST
Moon 7:14 AM EST (3/2) 7:55 PM EST (3/2)
Length of Visible Light 12h 19m
Length of Day
11h 29m
Waxing Crescent, 3% of the Moon is Illuminated
Mar 2
Waxing Crescent
Mar 8
First Quarter
Mar 16
Full
Mar 23
Last Quarter
Mar 30
New

Hourly Weather History & Observations

Time (EST) Temp. Windchill Dew Point Humidity Pressure Visibility Wind Dir Wind Speed Gust Speed Precip Events Conditions
12:53 AM 43.0 °F - 37.9 °F 82% 30.23 in 9.0 mi Calm Calm - N/A   Clear
1:53 AM 45.0 °F - 39.0 °F 80% 30.22 in 8.0 mi Calm Calm - N/A   Overcast
2:53 AM 46.0 °F - 39.0 °F 76% 30.21 in 9.0 mi Calm Calm - N/A   Mostly Cloudy
3:36 AM 46.0 °F - 39.0 °F 76% 30.20 in 9.0 mi Calm Calm - N/A   Overcast
3:53 AM 46.0 °F - 39.0 °F 76% 30.20 in 10.0 mi Calm Calm - N/A   Overcast
4:02 AM 46.0 °F 44.8 °F 39.0 °F 76% 30.20 in 10.0 mi North 3.5 mph - N/A   Overcast
4:19 AM 46.9 °F - 37.9 °F 71% 30.21 in 10.0 mi Calm Calm - N/A   Overcast
4:53 AM 46.9 °F - 37.9 °F 71% 30.21 in 10.0 mi North 5.8 mph - N/A   Overcast
5:53 AM 46.0 °F - 37.9 °F 73% 30.21 in 10.0 mi Calm Calm - N/A   Mostly Cloudy
6:01 AM 45.0 °F - 37.9 °F 76% 30.21 in 10.0 mi Calm Calm - N/A   Scattered Clouds
6:53 AM 43.0 °F - 37.9 °F 82% 30.20 in 10.0 mi Calm Calm - N/A   Clear
7:53 AM 48.9 °F - 39.9 °F 71% 30.22 in 10.0 mi Calm Calm - N/A   Clear
8:53 AM 57.9 °F - 41.0 °F 53% 30.23 in 10.0 mi Calm Calm - N/A   Clear
9:53 AM 64.0 °F - 39.9 °F 41% 30.22 in 10.0 mi Calm Calm - N/A   Clear
10:53 AM 66.0 °F - 33.1 °F 29% 30.20 in 10.0 mi West 6.9 mph - N/A   Clear
11:53 AM 69.1 °F - 37.0 °F 31% 30.17 in 10.0 mi Variable 6.9 mph - N/A   Clear
12:53 PM 70.0 °F - 37.0 °F 30% 30.13 in 10.0 mi SW 8.1 mph - N/A   Clear
1:53 PM 71.1 °F - 37.0 °F 29% 30.09 in 7.0 mi Variable 3.5 mph - N/A   Clear
2:53 PM 70.0 °F - 45.0 °F 41% 30.06 in 10.0 mi SSE 10.4 mph - N/A   Clear
3:53 PM 70.0 °F - 45.0 °F 41% 30.04 in 10.0 mi SSE 9.2 mph - N/A   Clear
4:53 PM 69.1 °F - 41.0 °F 36% 30.03 in 10.0 mi SSW 11.5 mph - N/A   Clear
5:53 PM 64.9 °F - 42.1 °F 43% 30.04 in 10.0 mi SSW 9.2 mph - N/A   Clear
6:53 PM 60.1 °F - 41.0 °F 49% 30.04 in 10.0 mi SSW 12.7 mph - N/A   Clear
7:53 PM 57.9 °F - 42.1 °F 56% 30.04 in 10.0 mi SSW 10.4 mph - N/A   Clear
8:53 PM 57.0 °F - 48.0 °F 72% 30.04 in 10.0 mi SW 11.5 mph - N/A   Clear
9:53 PM 55.9 °F - 46.9 °F 72% 30.03 in 10.0 mi SW 9.2 mph - N/A   Clear
10:53 PM 55.9 °F - 45.0 °F 67% 30.01 in 10.0 mi SSW 8.1 mph - N/A   Clear
11:53 PM 55.9 °F - 43.0 °F 62% 29.99 in 10.0 mi SSW 10.4 mph - N/A   Clear